Miscellaneous Local Product
Issued by NWS North Platte, NE

Home | Current Version | Previous Version | Text Only | Print | Product List | Glossary On
Versions: 1 2 3 4 5 6 7 8 9 10 11 12 13 14 15 16 17 18 19 20 21 22 23 24 25 26 27 28 29 30 31 32 33 34 35 36 37 38 39 40 41 42 43 44 45 46 47 48 49 50
000
AXUS43 KLBF 291410
MISLBF


WESTERN AND NORTH CENTRAL NEBRASKA HOURLY WEATHER ROUNDUP
NATIONAL WEATHER SERVICE NORTH PLATTE NE
900 AM CDT FRI APR 29 2016

NOTE: "FAIR" INDICATES FEW OR NO CLOUDS BELOW 12,000 FEET WITH NO
SIGNIFICANT WEATHER AND/OR OBSTRUCTIONS TO VISIBILITY.

NOTE: STATIONS NOT REPORTING VARIABLES SUCH AS SKY/WEATHER OR
PRESSURE ARE PROVIDED BY RAWS AND APRS NETWORKS AND ARE NOT UNDER
NATIONAL WEATHER SERVICE QUALITY CONTROL.

...OBSERVATIONS IN AND NEAR THE EASTERN PANHANDLE OF NEBRASKA...

CITY           SKY/WX    TMP DP  RH WIND       PRES   REMARKS
PINE RIDGE     CLOUDY    38  33  82 CALM      30.09S
CHADRON        CLOUDY    38  35  89 NE5       30.08F WCI  34
ALLIANCE       CLOUDY    38  35  89 N8        30.03F WCI  32
SIDNEY         FOG       36  35  96 E10       30.02S VSB 1/4 WCI  28
CRESCENT LAKE    N/A     38  37  95 N6          N/A  WCI  33
BIG SPRINGS      N/A     40  38  91 NE3         N/A
$$

...OBSERVATIONS IN NORTHERN NEBRASKA AND FAR SOUTHERN SOUTH DAKOTA...

CITY           SKY/WX    TMP DP  RH WIND       PRES   REMARKS
WINNER         CLOUDY    41  36  82 NE9       30.11F
VALENTINE      CLOUDY    39  36  89 N8        30.07F WCI  33
THEDFORD       CLOUDY    42  38  88 N9        30.07R
AINSWORTH      CLOUDY    40  39  96 N10       30.07F WCI  34
O`NEILL        CLOUDY    40  39  95 N9        30.08F WCI  35
ORD            CLOUDY    43  39  86 N13       30.04F
BROKEN BOW     CLOUDY    42  39  89 N12       30.05R
VALENTINE NWR    N/A     39  38  99 N7          N/A  WCI  34
BUTTE            N/A     37  35  94 NE10        N/A  WCI  30
HALSEY           N/A     39  38  95 N6G13       N/A  WCI  35
CHAMBERS         N/A     43  40  88 E3          N/A
EWING            N/A     41  40  96 NE5         N/A
$$

...OBSERVATIONS IN SOUTHWEST NEBRASKA AND FAR NORTHEAST COLORADO...

CITY           SKY/WX    TMP DP  RH WIND       PRES   REMARKS
IMPERIAL       CLOUDY    41  38  89 NE13      30.01F
OGALLALA       CLOUDY    40  36  83 N9        30.02F WCI  35
NORTH PLATTE   CLOUDY    41  36  82 N12       30.04F
MCCOOK         CLOUDY    43  40  89 NE14      30.02F
LEXINGTON      CLOUDY    43  37  80 N15       30.02F
PAXTON           N/A     39  37  93 N8          N/A  WCI  33
STAPLETON        N/A     40  36  87 CALM        N/A
GOTHENBURG       N/A     40  35  81 N6          N/A
CALLAWAY         N/A     38  36  93 N12         N/A  WCI  30
$$

...OBSERVATIONS IN CENTRAL LINCOLN COUNTY AREA...

CITY           SKY/WX    TMP DP  RH WIND       PRES   REMARKS
N.P. AIRPORT   CLOUDY    41  36  82 N12       30.04F
N.P. DOWNTOWN    N/A     40  36  85 N7          N/A
N.P. SOUTHEAST   N/A     40  35  82 N5G12       N/A
N.P. HILLCREST   N/A     40  36  86 N12         N/A  WCI  33
$$

...SOME OBSERVATIONS FROM AROUND THE REGION...

CITY           SKY/WX    TMP DP  RH WIND       PRES   REMARKS
DENVER         SNOW      33  30  88 E5        29.96F VSB 1/4 WCI  29
LARAMIE        CLOUDY    29  26  89 SE18      29.91F WCI  16
CHEYENNE       FOG       31  31 100 SE9       29.97F VSB<1/4 WCI  23
SCOTTSBLUFF    CLOUDY    38  35  89 NE9       30.03F WCI  31
RAPID CITY     CLOUDY    38  34  85 NE5       30.10F WCI  34
BISMARCK       CLOUDY    43  32  65 E6        30.20R
PIERRE         CLOUDY    42  36  79 E8        30.14F
SIOUX FALLS    CLOUDY    41  36  82 NE13      30.14F
OMAHA          CLOUDY    46  40  79 NE14      30.07F
GRAND ISLAND   CLOUDY    42  38  85 NE12      30.05R
KANSAS CITY    CLOUDY    49  43  80 NE10      30.06R
WICHITA        LGT RAIN  50  46  86 NE21G32   29.98F
OKLAHOMA CITY  CLOUDY    58  56  93 E9        29.79F
DALLAS         CLOUDY    77  71  82 S10       29.70R
AMARILLO       TSTM      49  47  93 NE23G32   29.74S
DODGE CITY     RAIN      43  41  93 NE17      29.93R FOG
HAYS           CLOUDY    43  36  75 NE20      30.00S
GOODLAND       LGT RAIN  40  38  93 E13       29.97F WCI  32
$$




USA.gov is the U.S. government's official web portal to all federal, state and local government web resources and services.